RYR2975 EBCI-EICK

Flight info

Callsign RYR2975
Flight time 1h 20m
Altitude 34000
Route CIV UY50 LUMEN L610 KOPUL Q60 OKSAW DCT FELCA DCT FADZU DCT BANBA DCT GOTEM GOTEM1G
Aircraft B738/M-SDE2E3FGHIRWXY/LB1

Departure

Time 2026-04-29 11:17
Airport Brussels South Charleroi Airport (EBCI)

Arrival

Time 2026-04-29 12:38
Airport Cork International Airport (EICK)
Time Latitude Longitude Altitude Speed Heading
2026-04-29 10:42 50.46959 4.47399 612 ft 0 kts 334°
2026-04-29 11:08 50.46948 4.47408 629 ft 2 kts 334°
2026-04-29 11:09 50.46933 4.47419 624 ft 2 kts 335°
2026-04-29 11:09 50.46918 4.47430 623 ft 2 kts 333°
2026-04-29 11:09 50.46906 4.47447 622 ft 2 kts 296°
2026-04-29 11:09 50.46902 4.47472 625 ft 2 kts 261°
2026-04-29 11:10 50.46903 4.47480 624 ft 0 kts 249°
2026-04-29 11:12 50.46884 4.47411 618 ft 14 kts 245°
2026-04-29 11:12 50.46817 4.47349 616 ft 12 kts 165°
2026-04-29 11:12 50.46749 4.47286 617 ft 13 kts 240°
2026-04-29 11:13 50.46701 4.47128 612 ft 19 kts 245°
2026-04-29 11:13 50.46639 4.46913 623 ft 23 kts 245°
2026-04-29 11:13 50.46572 4.46682 619 ft 25 kts 245°
2026-04-29 11:13 50.46494 4.46415 620 ft 28 kts 245°
2026-04-29 11:14 50.46414 4.46137 618 ft 27 kts 245°
2026-04-29 11:14 50.46339 4.45877 613 ft 25 kts 245°
2026-04-29 11:14 50.46267 4.45634 620 ft 24 kts 245°
2026-04-29 11:14 50.46200 4.45402 625 ft 25 kts 245°
2026-04-29 11:15 50.46122 4.45130 620 ft 29 kts 245°
2026-04-29 11:15 50.46037 4.44841 612 ft 28 kts 245°
2026-04-29 11:15 50.45958 4.44568 617 ft 23 kts 245°
2026-04-29 11:15 50.45892 4.44390 616 ft 18 kts 232°
2026-04-29 11:16 50.45816 4.44233 618 ft 18 kts 232°
2026-04-29 11:16 50.45739 4.44084 612 ft 17 kts 233°
2026-04-29 11:16 50.45653 4.43984 619 ft 16 kts 160°
2026-04-29 11:16 50.45657 4.44149 621 ft 29 kts 65°
2026-04-29 11:17 50.45850 4.44814 622 ft 102 kts 65°
2026-04-29 11:17 50.46233 4.46106 726 ft 149 kts 65°
2026-04-29 11:17 50.46664 4.47600 1576 ft 153 kts 62°
2026-04-29 11:17 50.47244 4.48928 2589 ft 143 kts 43°
2026-04-29 11:18 50.48209 4.49562 3516 ft 154 kts 25°
2026-04-29 11:18 50.49002 4.50652 3963 ft 161 kts 69°
2026-04-29 11:18 50.49630 4.52395 4108 ft 209 kts 54°
2026-04-29 11:18 50.50564 4.54261 4634 ft 223 kts 57°
2026-04-29 11:19 50.51494 4.56274 5351 ft 232 kts 58°
2026-04-29 11:19 50.52436 4.58344 6264 ft 232 kts 57°
2026-04-29 11:19 50.53618 4.60093 7086 ft 241 kts 33°
2026-04-29 11:19 50.55253 4.60899 7804 ft 255 kts
2026-04-29 11:20 50.57010 4.60549 8595 ft 266 kts 343°
2026-04-29 11:20 50.58568 4.58921 9323 ft 277 kts 313°
2026-04-29 11:20 50.59469 4.56242 10103 ft 282 kts 284°
2026-04-29 11:20 50.59635 4.53156 10750 ft 286 kts 268°
2026-04-29 11:21 50.59555 4.50038 11527 ft 283 kts 265°
2026-04-29 11:21 50.59432 4.46915 12269 ft 286 kts 264°
2026-04-29 11:21 50.59308 4.43725 12718 ft 306 kts 264°
2026-04-29 11:21 50.59174 4.40243 13006 ft 332 kts 265°
2026-04-29 11:22 50.59048 4.36558 13713 ft 341 kts 264°
2026-04-29 11:22 50.58929 4.32793 14525 ft 346 kts 264°
2026-04-29 11:22 50.58811 4.28966 15204 ft 354 kts 264°
2026-04-29 11:22 50.58696 4.25074 16039 ft 356 kts 265°
2026-04-29 11:23 50.58580 4.21173 16889 ft 358 kts 265°
2026-04-29 11:23 50.58462 4.17258 17760 ft 361 kts 264°
2026-04-29 11:23 50.58342 4.13257 18352 ft 371 kts 264°
2026-04-29 11:23 50.58214 4.09188 18989 ft 375 kts 264°
2026-04-29 11:24 50.58087 4.05076 19703 ft 378 kts 265°
2026-04-29 11:24 50.57960 4.00919 20343 ft 382 kts 264°
2026-04-29 11:24 50.57827 3.96724 20990 ft 386 kts 264°
2026-04-29 11:24 50.57691 3.92495 21660 ft 389 kts 265°
2026-04-29 11:25 50.57991 3.88236 22263 ft 398 kts 285°
2026-04-29 11:25 50.59220 3.84312 22883 ft 405 kts 307°
2026-04-29 11:25 50.61258 3.81232 23498 ft 411 kts 326°
2026-04-29 11:25 50.63845 3.79308 24083 ft 413 kts 340°
2026-04-29 11:26 50.69321 3.76255 25040 ft 421 kts 341°
2026-04-29 11:26 50.72087 3.74738 25616 ft 422 kts 341°
2026-04-29 11:26 50.74861 3.73187 26108 ft 425 kts 341°
2026-04-29 11:27 50.77657 3.71594 26540 ft 429 kts 340°
2026-04-29 11:27 50.80459 3.69978 27115 ft 430 kts 340°
2026-04-29 11:27 50.83285 3.68339 27482 ft 435 kts 340°
2026-04-29 11:27 50.86142 3.66679 27849 ft 440 kts 341°
2026-04-29 11:28 50.89003 3.65015 28524 ft 436 kts 341°
2026-04-29 11:28 50.91851 3.63352 29067 ft 437 kts 340°
2026-04-29 11:28 50.94699 3.61590 29509 ft 440 kts 339°
2026-04-29 11:28 50.97506 3.59778 30060 ft 439 kts 339°
2026-04-29 11:29 51.00353 3.57918 30578 ft 438 kts 339°
2026-04-29 11:29 51.03169 3.56080 31059 ft 437 kts 339°
2026-04-29 11:29 51.05977 3.54254 31519 ft 436 kts 340°
2026-04-29 11:29 51.08789 3.52434 31976 ft 435 kts 340°
2026-04-29 11:30 51.11583 3.50628 32451 ft 434 kts 340°
2026-04-29 11:30 51.14386 3.48817 32889 ft 433 kts 340°
2026-04-29 11:30 51.17173 3.47014 33323 ft 432 kts 340°
2026-04-29 11:30 51.19955 3.45211 33787 ft 431 kts 340°
2026-04-29 11:31 51.22725 3.43388 34217 ft 430 kts 337°
2026-04-29 11:31 51.25222 3.40735 34246 ft 438 kts 316°
2026-04-29 11:31 51.27090 3.36876 34260 ft 442 kts 299°
2026-04-29 11:31 51.28171 3.32290 34276 ft 443 kts 283°
2026-04-29 11:32 51.29374 3.22652 34265 ft 443 kts 281°
2026-04-29 11:32 51.30515 3.12985 34262 ft 443 kts 281°
2026-04-29 11:33 51.31703 3.03396 34258 ft 443 kts 281°
2026-04-29 11:33 51.32919 2.93738 34261 ft 443 kts 281°
2026-04-29 11:34 51.34127 2.84089 34266 ft 443 kts 281°
2026-04-29 11:34 51.35326 2.74430 34262 ft 443 kts 281°
2026-04-29 11:35 51.36519 2.64763 34267 ft 443 kts 281°
2026-04-29 11:35 51.37707 2.55080 34268 ft 443 kts 281°
2026-04-29 11:36 51.38887 2.45395 34275 ft 445 kts 281°
2026-04-29 11:36 51.40068 2.35637 34279 ft 447 kts 281°
2026-04-29 11:37 51.41241 2.25878 34277 ft 446 kts 281°
2026-04-29 11:37 51.42413 2.16136 34281 ft 445 kts 281°
2026-04-29 11:38 51.43519 2.06366 34295 ft 447 kts 278°
2026-04-29 11:38 51.44370 1.96485 34289 ft 447 kts 277°
2026-04-29 11:39 51.45173 1.86612 34295 ft 446 kts 277°
2026-04-29 11:39 51.45997 1.76750 34296 ft 445 kts 277°
2026-04-29 11:40 51.46833 1.66900 34305 ft 447 kts 277°
2026-04-29 11:40 51.47665 1.57078 34306 ft 448 kts 277°
2026-04-29 11:41 51.48501 1.47106 34309 ft 449 kts 277°
2026-04-29 11:41 51.49318 1.37244 34303 ft 449 kts 277°
2026-04-29 11:42 51.50131 1.27316 34305 ft 448 kts 277°
2026-04-29 11:42 51.50934 1.17420 34305 ft 446 kts 277°
2026-04-29 11:43 51.51727 1.07530 34327 ft 447 kts 276°
2026-04-29 11:43 51.52514 0.97608 34318 ft 449 kts 276°
2026-04-29 11:44 51.53295 0.87655 34318 ft 450 kts 276°
2026-04-29 11:44 51.54069 0.77676 34326 ft 451 kts 276°
2026-04-29 11:45 51.54836 0.67671 34324 ft 452 kts 276°
2026-04-29 11:45 51.55597 0.57632 34316 ft 453 kts 276°
2026-04-29 11:46 51.56350 0.47589 34327 ft 453 kts 276°
2026-04-29 11:46 51.57095 0.37527 34304 ft 454 kts 276°
2026-04-29 11:47 51.57831 0.27478 34310 ft 452 kts 276°
2026-04-29 11:47 51.58557 0.17437 34316 ft 451 kts 275°
2026-04-29 11:48 51.59273 0.07427 34327 ft 451 kts 275°
2026-04-29 11:48 51.59984 -0.02650 34199 ft 456 kts 274°
2026-04-29 11:49 51.60688 -0.12776 34427 ft 460 kts 274°
2026-04-29 11:49 51.61281 -0.21383 34455 ft 464 kts 274°
2026-04-29 11:50 51.61983 -0.31702 34460 ft 464 kts 274°
2026-04-29 11:50 51.62330 -0.36829 34280 ft 458 kts 274°
2026-04-29 11:50 51.62670 -0.41897 34289 ft 456 kts 274°
2026-04-29 11:51 51.63347 -0.52133 34308 ft 462 kts 274°
2026-04-29 11:51 51.64016 -0.62373 34299 ft 465 kts 274°
2026-04-29 11:52 51.64689 -0.72805 34291 ft 466 kts 274°
2026-04-29 11:52 51.65346 -0.83133 34265 ft 466 kts 274°
2026-04-29 11:53 51.66001 -0.93575 34264 ft 464 kts 274°
2026-04-29 11:53 51.66634 -1.03815 34265 ft 462 kts 274°
2026-04-29 11:54 51.67261 -1.14109 34266 ft 460 kts 273°
2026-04-29 11:54 51.67875 -1.24351 34270 ft 460 kts 273°
2026-04-29 11:55 51.68482 -1.34619 34290 ft 460 kts 273°
2026-04-29 11:55 51.69080 -1.44883 34298 ft 462 kts 273°
2026-04-29 11:56 51.69673 -1.55220 34297 ft 463 kts 273°
2026-04-29 11:56 51.70259 -1.65582 34302 ft 464 kts 273°
2026-04-29 11:57 51.70905 -1.75942 34274 ft 466 kts 275°
2026-04-29 11:57 51.71676 -1.86334 34267 ft 466 kts 275°
2026-04-29 11:58 51.72445 -1.96718 34272 ft 466 kts 275°
2026-04-29 11:58 51.73186 -2.07090 34267 ft 466 kts 275°
2026-04-29 11:59 51.73910 -2.17496 34272 ft 467 kts 274°
2026-04-29 11:59 51.74624 -2.27926 34278 ft 468 kts 274°
2026-04-29 12:00 51.75332 -2.38380 34267 ft 469 kts 274°
2026-04-29 12:00 51.76030 -2.48833 34272 ft 468 kts 274°
2026-04-29 12:01 51.76719 -2.59286 34366 ft 469 kts 274°
2026-04-29 12:01 51.77401 -2.69775 34414 ft 469 kts 274°
2026-04-29 12:02 51.78073 -2.80259 34455 ft 470 kts 274°
2026-04-29 12:02 51.78736 -2.90761 34452 ft 470 kts 274°
2026-04-29 12:03 51.79390 -3.01260 34462 ft 470 kts 274°
2026-04-29 12:03 51.80036 -3.11788 34427 ft 471 kts 274°
2026-04-29 12:04 51.80673 -3.22324 34390 ft 471 kts 274°
2026-04-29 12:04 51.81301 -3.32871 34345 ft 472 kts 274°
2026-04-29 12:05 51.81923 -3.43456 34297 ft 473 kts 274°
2026-04-29 12:05 51.82547 -3.54023 34248 ft 473 kts 276°
2026-04-29 12:06 51.83781 -3.64494 34250 ft 474 kts 282°
2026-04-29 12:06 51.85226 -3.74893 34242 ft 475 kts 282°
2026-04-29 12:07 51.86598 -3.85345 34246 ft 476 kts 281°
2026-04-29 12:07 51.87932 -3.95848 34248 ft 477 kts 281°
2026-04-29 12:08 51.88681 -4.06504 34248 ft 477 kts 272°
2026-04-29 12:08 51.89050 -4.17154 34241 ft 478 kts 271°
2026-04-29 12:09 51.89416 -4.27972 34229 ft 478 kts 271°
2026-04-29 12:09 51.89802 -4.38642 34237 ft 478 kts 272°
2026-04-29 12:10 51.90200 -4.49389 34234 ft 478 kts 272°
2026-04-29 12:10 51.90590 -4.60125 34222 ft 478 kts 271°
2026-04-29 12:11 51.90968 -4.70848 34230 ft 477 kts 271°
2026-04-29 12:11 51.91335 -4.81567 34114 ft 477 kts 271°
2026-04-29 12:12 51.91515 -4.86946 33648 ft 477 kts 271°
2026-04-29 12:12 51.91692 -4.92284 33277 ft 473 kts 271°
2026-04-29 12:12 51.91865 -4.97575 32882 ft 470 kts 271°
2026-04-29 12:12 51.92035 -5.02840 32500 ft 466 kts 271°
2026-04-29 12:13 51.92201 -5.08074 32123 ft 464 kts 271°
2026-04-29 12:13 51.92364 -5.13273 31750 ft 461 kts 271°
2026-04-29 12:13 51.92524 -5.18456 31380 ft 459 kts 271°
2026-04-29 12:13 51.92680 -5.23603 31010 ft 457 kts 271°
2026-04-29 12:14 51.92833 -5.28722 30664 ft 454 kts 271°
2026-04-29 12:14 51.92984 -5.33831 30285 ft 453 kts 271°
2026-04-29 12:14 51.93132 -5.38916 29853 ft 451 kts 271°
2026-04-29 12:14 51.93277 -5.43971 29448 ft 447 kts 271°
2026-04-29 12:15 51.93418 -5.48984 29079 ft 444 kts 271°
2026-04-29 12:15 51.93555 -5.53896 28690 ft 441 kts 271°
2026-04-29 12:15 51.93692 -5.58897 28321 ft 437 kts 271°
2026-04-29 12:15 51.93823 -5.63748 27942 ft 435 kts 271°
2026-04-29 12:16 51.93954 -5.68690 27560 ft 432 kts 271°
2026-04-29 12:16 51.94081 -5.73539 27190 ft 429 kts 271°
2026-04-29 12:16 51.94203 -5.78290 26832 ft 427 kts 271°
2026-04-29 12:16 51.94324 -5.83072 26470 ft 424 kts 271°
2026-04-29 12:17 51.94443 -5.87840 26104 ft 422 kts 271°
2026-04-29 12:17 51.94559 -5.92571 25748 ft 420 kts 271°
2026-04-29 12:17 51.94673 -5.97290 25384 ft 417 kts 271°
2026-04-29 12:17 51.94784 -6.01980 25024 ft 415 kts 271°
2026-04-29 12:18 51.94893 -6.06643 24666 ft 414 kts 271°
2026-04-29 12:18 51.95000 -6.11291 24306 ft 412 kts 271°
2026-04-29 12:18 51.95105 -6.15921 23948 ft 410 kts 272°
2026-04-29 12:18 51.95208 -6.20529 23534 ft 409 kts 272°
2026-04-29 12:19 51.95231 -6.25122 23118 ft 406 kts 264°
2026-04-29 12:19 51.94944 -6.29646 22770 ft 401 kts 261°
2026-04-29 12:19 51.94596 -6.34120 22398 ft 399 kts 261°
2026-04-29 12:19 51.94235 -6.38556 22036 ft 396 kts 261°
2026-04-29 12:20 51.93876 -6.42962 21679 ft 393 kts 261°
2026-04-29 12:20 51.93525 -6.47325 21332 ft 390 kts 261°
2026-04-29 12:20 51.93181 -6.51673 20980 ft 387 kts 261°
2026-04-29 12:20 51.92842 -6.55989 20638 ft 385 kts 261°
2026-04-29 12:21 51.92507 -6.60271 20295 ft 382 kts 261°
2026-04-29 12:21 51.92174 -6.64533 19952 ft 380 kts 261°
2026-04-29 12:21 51.91842 -6.68763 19613 ft 378 kts 261°
2026-04-29 12:21 51.91511 -6.72970 19274 ft 375 kts 261°
2026-04-29 12:22 51.91180 -6.77154 18936 ft 373 kts 261°
2026-04-29 12:22 51.90850 -6.81309 18596 ft 372 kts 260°
2026-04-29 12:22 51.90520 -6.85442 18219 ft 370 kts 260°
2026-04-29 12:22 51.90190 -6.89556 17849 ft 367 kts 260°
2026-04-29 12:23 51.89861 -6.93640 17497 ft 364 kts 260°
2026-04-29 12:23 51.89534 -6.97692 17158 ft 361 kts 260°
2026-04-29 12:23 51.89208 -7.01706 16818 ft 359 kts 260°
2026-04-29 12:23 51.88882 -7.05698 16486 ft 356 kts 260°
2026-04-29 12:24 51.88558 -7.09651 16156 ft 353 kts 260°
2026-04-29 12:24 51.88235 -7.13578 15831 ft 351 kts 260°
2026-04-29 12:24 51.87912 -7.17481 15501 ft 349 kts 260°
2026-04-29 12:24 51.87591 -7.21351 15178 ft 346 kts 260°
2026-04-29 12:25 51.87270 -7.25205 14853 ft 344 kts 260°
2026-04-29 12:25 51.86950 -7.29033 14538 ft 343 kts 260°
2026-04-29 12:25 51.86311 -7.36630 13871 ft 339 kts 260°
2026-04-29 12:26 51.85991 -7.40407 13505 ft 337 kts 260°
2026-04-29 12:26 51.85677 -7.44103 13184 ft 335 kts 260°
2026-04-29 12:26 51.85359 -7.47827 12843 ft 333 kts 260°
2026-04-29 12:26 51.85043 -7.51523 12520 ft 331 kts 260°
2026-04-29 12:27 51.84728 -7.55188 12197 ft 328 kts 260°
2026-04-29 12:27 51.84414 -7.58834 11880 ft 326 kts 260°
2026-04-29 12:27 51.84100 -7.62452 11570 ft 324 kts 260°
2026-04-29 12:27 51.83789 -7.66041 11258 ft 322 kts 260°
2026-04-29 12:28 51.83478 -7.69614 10943 ft 320 kts 260°
2026-04-29 12:28 51.83167 -7.73170 10634 ft 318 kts 260°
2026-04-29 12:28 51.82857 -7.76702 10354 ft 316 kts 259°
2026-04-29 12:28 51.82551 -7.80169 10189 ft 309 kts 259°
2026-04-29 12:29 51.81945 -7.83452 9837 ft 303 kts 238°
2026-04-29 12:29 51.80905 -7.86372 9556 ft 298 kts 234°
2026-04-29 12:29 51.79828 -7.89229 9241 ft 296 kts 234°
2026-04-29 12:29 51.78760 -7.92059 8941 ft 295 kts 234°
2026-04-29 12:30 51.77700 -7.94888 8641 ft 293 kts 234°
2026-04-29 12:30 51.76653 -7.97700 8337 ft 292 kts 235°
2026-04-29 12:30 51.75616 -8.00501 8055 ft 290 kts 235°
2026-04-29 12:30 51.74586 -8.03293 7761 ft 289 kts 235°
2026-04-29 12:31 51.73559 -8.06078 7467 ft 288 kts 235°
2026-04-29 12:31 51.72539 -8.08843 7179 ft 286 kts 235°
2026-04-29 12:31 51.71524 -8.11597 6889 ft 285 kts 235°
2026-04-29 12:31 51.70511 -8.14338 6600 ft 284 kts 235°
2026-04-29 12:32 51.69503 -8.17060 6348 ft 281 kts 235°
2026-04-29 12:32 51.68512 -8.19753 6254 ft 278 kts 236°
2026-04-29 12:32 51.67706 -8.22642 5705 ft 290 kts 248°
2026-04-29 12:32 51.67052 -8.25743 5304 ft 294 kts 249°
2026-04-29 12:33 51.66392 -8.28862 4940 ft 295 kts 249°
2026-04-29 12:33 51.65740 -8.31996 4559 ft 296 kts 256°
2026-04-29 12:33 51.65795 -8.35235 4198 ft 286 kts 291°
2026-04-29 12:33 51.66815 -8.37695 3965 ft 249 kts 325°
2026-04-29 12:34 51.68163 -8.39188 3659 ft 225 kts 337°
2026-04-29 12:34 51.69491 -8.40306 3399 ft 206 kts 341°
2026-04-29 12:34 51.70751 -8.41175 3131 ft 193 kts 347°
2026-04-29 12:34 51.71992 -8.41919 2889 ft 191 kts 348°
2026-04-29 12:35 51.73256 -8.42663 2635 ft 195 kts 348°
2026-04-29 12:35 51.74097 -8.43166 2462 ft 194 kts 348°
2026-04-29 12:35 51.75774 -8.44143 2097 ft 188 kts 349°
2026-04-29 12:35 51.76969 -8.44862 1851 ft 177 kts 348°
2026-04-29 12:36 51.77717 -8.45318 1705 ft 168 kts 349°
2026-04-29 12:36 51.78772 -8.45943 1470 ft 152 kts 349°
2026-04-29 12:36 51.79705 -8.46497 1258 ft 134 kts 350°
2026-04-29 12:36 51.80570 -8.47005 1088 ft 130 kts 351°
2026-04-29 12:37 51.81424 -8.47509 880 ft 130 kts 352°
2026-04-29 12:37 51.82298 -8.48028 710 ft 137 kts 348°
2026-04-29 12:37 51.83190 -8.48557 541 ft 136 kts 349°
2026-04-29 12:37 51.83995 -8.49024 472 ft 99 kts 340°
2026-04-29 12:38 51.84436 -8.49288 485 ft 37 kts 340°
2026-04-29 12:38 51.84666 -8.49418 487 ft 33 kts 341°
2026-04-29 12:38 51.84788 -8.49381 486 ft 18 kts 68°
2026-04-29 12:38 51.84850 -8.49216 502 ft 17 kts 37°
2026-04-29 12:39 51.84888 -8.49103 502 ft 0 kts 71°
2026-04-29 12:39 51.84889 -8.49098 502 ft 2 kts 71°
2026-04-29 12:39 51.84894 -8.49078 502 ft 0 kts 70°